Regional Weather Roundup
Issued by NWS Newport/Morehead, NC

Current Version | Previous Version | Text Only | Print | Product List | Glossary On
Versions: 1 2 3 4 5 6 7 8 9 10 11 12 13 14 15 16 17 18 19 20 21 22 23 24 25 26 27 28 29 30 31 32 33 34 35 36 37 38 39 40 41 42 43 44 45 46 47 48 49 50
000
ASUS42 KMHX 231726
RWRMHX
WEATHER ROUNDUP FOR EASTERN NORTH CAROLINA
NATIONAL WEATHER SERVICE NEWPORT/MOREHEAD CITY NC
100 PM EDT SUN JUL 23 2017

NOTE: "FAIR" INDICATES FEW OR NO CLOUDS BELOW 12,000 FEET
WITH NO SIGNIFICANT WEATHER AND/OR OBSTRUCTIONS TO VISIBILITY

NCZ015>017-031-032-045>047-102-103-231800-
NORTH COAST

CITY           SKY/WX    TMP DP  RH WIND       PRES   REMARKS
EDENTON        SUNNY     92  79  65 SW10      29.85F HX 109
ELIZABETH CITY MOSUNNY   91  81  72 W10       29.84S HX 111
KITTY HAWK     SUNNY     89  76  67 W8        29.84S HX 100
MANTEO         MOSUNNY   91  77  64 W13G20    29.85F HX 104

$$

NCZ045>047-081-094-103-104-231800-
CENTRAL COAST

CITY           SKY/WX    TMP DP  RH WIND       PRES   REMARKS
FRISCO         SUNNY     84  75  74 SW13      29.89F

$$

NCZ095-097-098-100-101-231800-
SOUTHERN COAST

CITY           SKY/WX    TMP DP  RH WIND       PRES   REMARKS
BEAUFORT       SUNNY     86  81  85 SW20      29.91S HX 102
CEDAR ISLAND   NOT AVBL
JACKSONVILLE   PTSUNNY   91  78  65 SW9       29.88F HX 106
PINEY ISLAND   SUNNY    N/A N/A N/A SW16      29.88F
WILMINGTON     MOSUNNY   92  77  61 SW9       29.90F HX 105


$$

NCZ011>013-027>030-043-044-078>080-089-090>093-098-231800-
COASTAL PLAIN

CITY           SKY/WX    TMP DP  RH WIND       PRES   REMARKS
AHOSKIE          N/A     91  78  64 CALM      29.84F HX 105
CLINTON        SUNNY     93  77  59 W9        29.89F HX 106
ELIZABETHTOWN  NOT AVBL
GOLDSBORO      SUNNY     94  79  62 SW14      29.86F HX 112
GREENVILLE     SUNNY     95  77  55 SW10G16   29.88S HX 109
HAVELOCK       MOSUNNY   92  79  65 SW10      29.89F HX 108
KENANSVILLE    MOSUNNY   95  75  52 SW10      29.88F HX 107
KINSTON        SUNNY     95  75  52 SW9G17    29.88F HX 107
NEW BERN       MOSUNNY   93  79  63 SW9       29.89F HX 110
RICHLANDS      MOSUNNY   92  78  63 SW10      29.89F HX 107
ROCKY MOUNT    SUNNY     93  77  59 W9        29.86F HX 107
WASHINGTON     SUNNY     92  78  62 SW15G21   29.86F HX 107
WHITEVILLE     MOSUNNY   92  75  57 SW9       29.90F HX 104

$$

AMZ130-135-150-152-154-156-158-170-250-252-270-ANZ085-086-088-633-658-670-231800-
MARINE OBSERVATIONS

STATION/POSITION TIME  TEMP    WIND        PRES    WAVE   SWELL
                       AIR SEA DIR/SP/G            HT/PER HT/PER
                 (UTC) (F)     (DEG/KT/KT) (MB)    (FT/S) (FT/S)
CHESAPEAKE LIGHT NOT AVBL
64 E VA BEACH    1650   80 79  240/ 10/ 14 1011.2    4/ 7   3/ 7
DUCK             1700   86 59  240/ 14/ 16 1010.3
2 E DUCK         1700      62                N/A     2/11
OREGON INLET     1700   85 84  200/ 20/ 23 1010.9
13E OREGON INLT  1648      76                N/A     4/ 6   2/ 7
HATTERAS CG      1700   82 76  220/ 12/ 16 1012.2
DIAMOND BUOY     1650   84 84  230/ 21/ 25 1012.2    7/ 7   2/11
CAPE LOOKOUT     1700   85     220/ 11/ 14 1012.6
BEAUFORT LAB     1700   84 80  220/ 11/ 16 1012.1
30 SE NEW RVR IN 1708   82 82  230/ 16/ 21 1013.3
30 SE NEW RVR IN 1713      82                N/A     6/ 6   2/11
27 SE WRIGHTSVLE 1708   82 82  220/ 17/ 23 1013.3
5 SE WRIGHTSVLE  1708   81 79  200/ 10/ 16 1012.9
225 S CAPE HAT   1650   82 84  230/ 16/ 17 1017.3    5/ 6   2/ 9
41 SE CHARLESTON 1710   82 84  220/ 16/ 17 1014.8

$$




USA.gov is the U.S. government's official web portal to all federal, state and local government web resources and services.